Location: Observatoires du Mont Megantic
(45.4500°N, 71.1500°W)
Time: 13:20:00
(UTC-04:00)

ISS - Visible Passes

Search period start: 23 October 2017 00:00
Search period end: 02 November 2017 00:00
Orbit: 400 x 408 km, 51.6° (Epoch: 24 October)

Date Brightness Start Highest point End Pass type
(mag) Time Alt. Az. Time Alt. Az. Time Alt. Az.
29 Oct -1.2 06:23:06 10° S 06:25:37 21° SE 06:28:10 10° E visible
30 Oct -0.8 05:32:06 10° SSE 05:33:26 12° SE 05:34:46 10° ESE visible
31 Oct -2.8 06:13:55 10° SW 06:17:02 45° SE 06:20:09 10° ENE visible
01 Nov -1.9 05:23:50 22° SSE 05:24:43 25° SE 05:27:27 10° E visible
